Regional Weather Roundup
Issued by NWS Newport/Morehead, NC

Current Version | Previous Version | Text Only | Print | Product List | Glossary Off
Versions: 1 2 3 4 5 6 7 8 9 10 11 12 13 14 15 16 17 18 19 20 21 22 23 24 25 26 27 28 29 30 31 32 33 34 35 36 37 38 39 40 41 42 43 44 45 46 47 48 49 50
000 ASUS42 KMHX 041612 RWRMHX WEATHER ROUNDUP FOR EASTERN NORTH CAROLINA NATIONAL WEATHER SERVICE NEWPORT/MOREHEAD CITY NC 1100 AM EST WED MAR 04 2015 NOTE: "FAIR" INDICATES FEW OR NO CLOUDS BELOW 12,000 FEET WITH NO SIGNIFICANT WEATHER AND/OR OBSTRUCTIONS TO VISIBILITY NCZ015>017-031-032-045>047-102-103-041700- NORTH COAST CITY SKY/WX TMP DP RH WIND PRES REMARKS EDENTON CLOUDY 55 55 100 W9 30.03R FOG ELIZABETH CITY CLOUDY 60 58 92 SW17G24 30.01R KITTY HAWK NOT AVBL MANTEO PTSUNNY 61 57 88 SW7 30.02S $$ NCZ045>047-081-094-103-104-041700- CENTRAL COAST CITY SKY/WX TMP DP RH WIND PRES REMARKS FRISCO FOG 56 56 100 SW12 30.05F VSB 1/4 SWANQUARTER N/A 61 N/A N/A S16G23 29.97S $$ NCZ095-097-098-100-101-041700- SOUTHERN COAST CITY SKY/WX TMP DP RH WIND PRES REMARKS BEAUFORT NOT AVBL CEDAR ISLAND N/A 63 N/A N/A SW21G29 30.09S JACKSONVILLE SUNNY 75 63 66 SW13G25 30.04F PINEY ISLAND N/A N/A N/A N/A MISG 30.05F WILMINGTON PTSUNNY 72 65 78 SW15G31 30.07F $$ NCZ011>013-027>030-043-044-078>080-089-090>093-098-041700- COASTAL PLAIN CITY SKY/WX TMP DP RH WIND PRES REMARKS AHOSKIE NOT AVBL CLINTON MOSUNNY 65 65 99 CALM 30.03F ELIZABETHTOWN SUNNY 72 63 73 SW12G24 30.04F GOLDSBORO NOT AVBL GREENVILLE NOT AVBL HAVELOCK MOSUNNY 71 63 75 SW16G26 30.05F KENANSVILLE SUNNY 72 62 69 SW7G16 30.04F KINSTON NOT AVBL NEW BERN SUNNY 78 62 57 SW13G26 30.03F RICHLANDS PTSUNNY 73 63 68 SW18 30.05S ROCKY MOUNT CLOUDY 52 52 100 S10 30.02F FOG WASHINGTON MOSUNNY 69 62 78 W13G21 30.02S WHITEVILLE CLOUDY 72 64 75 SW9 30.06F $$ AMZ130-135-150-152-154-156-158-170-250-252-270-ANZ085-086-088-633-658-670-041700- MARINE OBSERVATIONS STATION/POSITION TIME TEMP WIND PRES WAVE SWELL AIR SEA DIR/SP/G HT/PER HT/PER (UTC) (F) (DEG/KT/KT) (MB) (FT/S) (FT/S) CHESAPEAKE LIGHT 1500 48 240/ 17/ 18 1015.8 64 E VA BEACH 1550 54 54 230/ 12/ 16 1015.7 6/ 8 5/ 8 DUCK 1500 55 35 240/ 12/ 15 1015.3 2 E DUCK 1511 36 N/A 3/ 7 2/11 10 NE DUCK 1522 37 N/A 5/ 8 2/11 OREGON INLET 1500 50 44 200/ 16/ 19 1017.0 HATTERAS CG 1500 55 45 230/ 12/ 17 1018.0 CAPE LOOKOUT 1500 62 220/ 12/ 15 1018.4 BEAUFORT LAB 1500 57 44 220/ 6/ 10 1017.8 27 SE WRIGHTSVLE NOT AVBL 5 SE WRIGHTSVLE NOT AVBL 225 S CAPE HAT 1550 72 73 220/ 16/ 19 1023.5 6/ 9 3/ 9 41 SE CHARLESTON 1550 69 69 220/ 16/ 17 1019.6 5/ 6 $$

USA.gov is the U.S. government's official web portal to all federal, state and local government web resources and services.